OPS 4682 DEB, 38449

Orbit data source: Space-Track

OPS 4682 DEB, 38449 is space debris in LEO originally from a launch on Sat, 03 Apr 1965 UTC launched from the Air Force Western Test Range (AFWTR). Debris objects in space refer to the collection of defunct objects orbiting the Earth. Examples of debris include non-operational satellites, rocket bodies, and fragments generated from explosions, collisions, or faulty payload assembly.

Loading next visibility...
Identifier
38449, 1965-027FE
Orbit
LEO
Country
Flag of USUS
Related business
Manufacturer
Unknown
Mission
Spacecraft
Bus & Motor
Unknown
Mass
Unknown
Launch date (UTC)
1965-04-03 (61 years ago)
Launch vehicle
Unknown
Launch site
Air Force Western Test Range (AFWTR)
Object type
Payload
Rocket body
Debris
Shape & HBR
Unknown shape, 0.1 m
Radar Cross Section
Medium (>0.1 m² and <1 m²)

Expand to show TLE details & history
Last TLE update: 2 days ago

TLE from 2 days ago
0 OPS 4682 DEB
1 38449U 65027FE  26173.98764566  .00000308  00000-0  10658-2 0  9991
2 38449  90.2468  11.1384 0032193 149.6158 210.6836 12.95278413588389
Epoch: 2026-06-22T23:42Z
TLE epoch observation values (Epoch: 2026-06-22T23:42:12.585Z)
Latitude
0.00001°
Longitude
104.42029°
Altitude
1,304.748 km
Speed
7.194 km/s
True Right ascension
00h 44m 33s
True Declination
0° 00' 00"
Sunlit
Object was in daylight at epoch
Visualization orbit readout
Latitude
Unknown
Longitude
Unknown
Altitude
Unknown
Speed
Unknown
Apparent Right ascension
Unknown
Apparent Declination
Unknown
Sunlit
N/A
Visualization observer readout
Local Sidereal Time
01:46:27
Azimuth
Unknown
Elevation
Unknown
Doppler factor
Unknown
Orbital elements
Apogee altitude
1,302.423 km
Perigee altitude
1,253.13 km
Semi-major axis
7,655.913 km
Eccentricity
0.00322
Inclination
90.2468°
RAAN
11.1384°
Arg. of periapsis
149.6158°
True anomaly
210.496°
Mean anomaly
210.6836°
Eccentric anomaly
210.58973°
Mean motion
3.24002 °/min
Orbital period
111.11 mins
BSTAR
0.0010658
Loading maneuver chart data...
Computing Atmospheric mass density...
Loading historical data...
Loading historical data...
Loading historical data...
Loading historical data...
Loading historical data...
Loading historical data...
Loading historical data...

Documentation

Showing up to 5 results
|